Orbital Elements at Epoch 2459200.5 (2020-Dec-17.0) TDB
Reference: JPL 6 (heliocentric ecliptic J2000)
Element | Value | Uncertainty (1-sigma) | Units |
e | .3164130893822658 | 8.3673e-08 | |
a | 2.374788274042591 | 1.4224e-08 | au |
q | 1.623374179623995 | 2.038e-07 | au |
i | 5.70082969667117 | 6.0133e-06 | deg |
node | 186.0919432481111 | 8.0148e-05 | deg |
peri | 138.4625181801821 | 9.317e-05 | deg |
M | 108.3375840357602 | 3.0682e-05 | deg |
tp | 2458798.234843547992 (2019-Nov-10.73484355) | 0.0001125 | TDB |
period | 1336.705609707173 3.66 | 1.201e-05 3.288e-08 | d yr |
n | .2693188368371282 | 2.4197e-09 | deg/d |
Q | 3.126202368461186 | 1.8725e-08 | au |
|
| | Orbit Determination Parameters
Additional Information
|